GPS BIIR-17M

Last updated on Tue Sep 22 2026 00:03:02 GMT+0000 (Coordinated Universal Time)

1 32260U 07047A 26264.45539001 .00000021 00000+0 00000+0 0 9999 2 32260 54.1724 76.1003 0169018 89.6388 272.3459 2.00551488138740
UTC large
Height (km)
Speed (km/s)
/
Latitude / Longitude
Inclination (degrees)
Orbital Period (minutes)
Azimuth
Elevation
Range (km)
Doppler Factor

Next 0 passes for location: London (51.5072 / 0.1276)

No passes found over London.
GPS BIIR-17M